Weather in Strangnas

Sweden     59°22′04″N   17°01′30″E
temp.,
°C
wind,
m/s
gust,
m/s
humid.,
%
clouds,
%
prec.,
mm/h
press.,
hPa
HPBL,
m
1 december, wed
wed101:00−7w267891 0.0 997210
04:00−7wnw249045 0.0 996154
07:00−7nw119154 0.0 99633
10:00−6nnw1183100 0.0 99766
13:00−5ene1272100 0.0 995195
16:00−6e1469100 0.0 994127
19:00−5ne2673100 0.0 993189
22:00−3ne3978100 0.0 991375
2 december, thu
thu201:00−3ne41075100 0.0 989462
04:00−2nne51269100 0.0 988544
07:00−2nne51269100 0.0 989619
10:00−2nne51168100 0.0 990721
13:00−2n51067100 0.0 991658
16:00−3n51080100 0.0 993558
19:00−4n4881100 0.0 995412
22:00−4nnw3889100 0.1 996355
3 december, fri
fri301:00−4nnw3783100 0.1 997335
04:00−4nnw2684100 0.0 999270
07:00−4nnw2685100 0.0 1000317
10:00−4n2591100 0.4 1001272
13:00−3n248238 0.4 1001235
16:00−5n22855 0.0 100227
19:00−5nne11905 0.0 100319
22:00−5ene11935 0.0 100414
4 december, sat
sat401:00−5e229275 0.0 100327
04:00−5e2587100 0.0 100388
07:00−4e278298 0.0 1004163
10:00−3ene397596 0.0 1004307
13:00−2ene497380 0.0 1004409
16:00−3ene4117534 0.0 1006433
19:00−3ne5117529 0.0 1008484
22:00−4ne4108167 0.0 1010469
5 december, sun
sun501:00−4ne5118274 0.0 1012524
04:00−5ne4108362 0.0 1013522
07:00−5ne4108232 0.0 1016522
10:00−5ne497822 0.0 1018589
13:00−4ne47696 0.0 1019695
16:00−5nne387512 0.0 1020480
19:00−5nne387731 0.0 1021381
22:00−6nne37795 0.0 1022275